Location: Unspecified
(0.0000°N, 0.0000°E)
Time: 05:07:00
(UTC+02:00)

Resurs 01 Rocket - Visible Passes

Search period start: 28 August 2014 00:00
Search period end: 07 September 2014 00:00
Orbit: 635 x 647 km, 98.2° (Epoch: 26 August)

Date Brightness Start Highest point End Pass type
(mag) Time Alt. Az. Time Alt. Az. Time Alt. Az.
28 Aug 3.9 07:16:50 10° NE 07:20:34 27° ESE 07:24:19 10° SSE visible
30 Aug 3.2 20:15:59 10° S 20:20:09 40° WSW 20:24:17 10° NNW visible
31 Aug 4.8 06:53:54 10° ENE 06:55:43 12° ESE 06:57:32 10° SE visible
31 Aug 4.5 20:40:46 10° SSW 20:43:55 19° WSW 20:47:04 10° WNW visible
01 Sep 4.0 07:15:48 10° NE 07:19:29 26° ESE 07:23:11 10° SSE visible
03 Sep 3.1 20:14:51 10° S 20:19:03 43° WSW 20:23:14 10° NNW visible
04 Sep 4.9 06:53:04 10° E 06:54:38 12° ESE 06:56:12 10° ESE visible
04 Sep 4.5 20:39:35 10° SSW 20:42:50 20° WSW 20:46:04 10° NW visible
05 Sep 4.2 07:14:47 10° NE 07:18:24 25° ESE 07:22:01 10° SSE visible
